When you browse on this site, cookies collect data to enhance your experience and personalize the content and advertising you see.
Visit our Privacy Policy to learn more. By continuing to use the site, you agree to this use of cookies and data.
  • In Hungary
  • List of Countries
  • For 7 days
  • Water Temperature
  • Weather Map
  • News
  • Weather Widgets
  • user-avatar
    Login

    Hourly Weather Russkiy

    Today, 25 February, Tuesday

    Time Temperature Precipitation Wind Pressure Humidity
    00:00 +3°C° 1 mm 10 mps 743 mmHg 86%
    01:00 +2°C° 0.6 mm 10 mps 743 mmHg 84%
    02:00 +2°C° 0.6 mm 11 mps 743 mmHg 81%
    03:00 0°C° 0.6 mm 12 mps 743 mmHg 78%
    04:00 0°C° 0 mm 12 mps 743 mmHg 80%
    05:00 -1°C° 0 mm 12 mps 744 mmHg 81%
    06:00 -2°C° 0 mm 12 mps 744 mmHg 83%
    07:00 -2°C° 0.1 mm 13 mps 745 mmHg 86%
    08:00 -2°C° 0.1 mm 13 mps 746 mmHg 90%
    09:00 -4°C° 0.1 mm 13 mps 746 mmHg 94%
    10:00 -2°C° 0.3 mm 13 mps 748 mmHg 91%
    11:00 -2°C° 0.3 mm 12 mps 749 mmHg 89%
    12:00 -1°C° 0.3 mm 12 mps 750 mmHg 86%
    13:00 -1°C° 0 mm 11 mps 751 mmHg 80%
    14:00 -1°C° 0 mm 11 mps 752 mmHg 74%
    15:00 0°C° 0 mm 10 mps 752 mmHg 68%
    16:00 0°C° 0 mm 9 mps 753 mmHg 67%
    17:00 0°C° 0 mm 8 mps 754 mmHg 67%
    18:00 +1°C° 0 mm 6 mps 754 mmHg 67%
    19:00 -1°C° 0 mm 6 mps 755 mmHg 69%
    20:00 -1°C° 0 mm 6 mps 755 mmHg 71%
    21:00 -1°C° 0 mm 5 mps 756 mmHg 73%
    22:00 -1°C° 0 mm 5 mps 756 mmHg 76%
    23:00 -1°C° 0 mm 5 mps 756 mmHg 80%

    Tomorrow, 26 February, Wednesday

    Time Temperature Precipitation Wind Pressure Humidity
    00:00 -1°C° 0 mm 5 mps 756 mmHg 84%
    01:00 -1°C° 0 mm 5 mps 756 mmHg 83%
    02:00 -1°C° 0 mm 4 mps 757 mmHg 83%
    03:00 -2°C° 0 mm 4 mps 757 mmHg 82%
    04:00 -2°C° 0 mm 4 mps 757 mmHg 84%
    05:00 -1°C° 0 mm 4 mps 757 mmHg 86%
    06:00 -1°C° 0 mm 4 mps 756 mmHg 88%
    07:00 0°C° 0 mm 4 mps 757 mmHg 84%
    08:00 +1°C° 0 mm 5 mps 757 mmHg 81%
    09:00 +2°C° 0 mm 6 mps 757 mmHg 77%
    10:00 +3°C° 0 mm 5 mps 757 mmHg 73%
    11:00 +5°C° 0 mm 5 mps 756 mmHg 68%
    12:00 +6°C° 0 mm 5 mps 756 mmHg 64%
    13:00 +6°C° 0 mm 5 mps 756 mmHg 58%
    14:00 +7°C° 0 mm 5 mps 755 mmHg 53%
    15:00 +8°C° 0 mm 5 mps 755 mmHg 47%
    16:00 +7°C° 0 mm 4 mps 755 mmHg 49%
    17:00 +6°C° 0 mm 4 mps 754 mmHg 50%
    18:00 +5°C° 0 mm 3 mps 754 mmHg 52%
    19:00 +5°C° 0 mm 4 mps 754 mmHg 52%
    20:00 +5°C° 0 mm 4 mps 754 mmHg 53%
    21:00 +5°C° 0 mm 5 mps 754 mmHg 53%
    22:00 +3°C° 0 mm 5 mps 754 mmHg 56%
    23:00 +3°C° 0 mm 6 mps 754 mmHg 58%

    Day after tomorrow, 27 February, Thursday

    Time Temperature Precipitation Wind Pressure Humidity
    00:00 +3°C° 0 mm 6 mps 753 mmHg 60%
    01:00 +3°C° 0 mm 6 mps 753 mmHg 58%
    02:00 +2°C° 0 mm 6 mps 753 mmHg 56%
    03:00 +2°C° 0 mm 6 mps 753 mmHg 55%
    04:00 +2°C° 0 mm 6 mps 752 mmHg 56%
    05:00 +2°C° 0 mm 6 mps 752 mmHg 57%
    06:00 +2°C° 0 mm 6 mps 752 mmHg 58%
    07:00 +3°C° 0 mm 6 mps 752 mmHg 59%
    08:00 +3°C° 0 mm 6 mps 752 mmHg 59%
    09:00 +4°C° 0 mm 6 mps 752 mmHg 60%
    10:00 +7°C° 0 mm 6 mps 752 mmHg 56%
    11:00 +9°C° 0 mm 6 mps 751 mmHg 52%
    12:00 +10°C° 0 mm 6 mps 751 mmHg 48%
    13:00 +11°C° 0 mm 6 mps 751 mmHg 46%
    14:00 +13°C° 0 mm 6 mps 750 mmHg 44%
    15:00 +14°C° 0 mm 6 mps 750 mmHg 42%
    16:00 +14°C° 0 mm 5 mps 750 mmHg 46%
    17:00 +13°C° 0 mm 5 mps 750 mmHg 49%
    18:00 +12°C° 0 mm 4 mps 750 mmHg 53%
    19:00 +11°C° 0 mm 4 mps 750 mmHg 58%
    20:00 +10°C° 0 mm 4 mps 750 mmHg 62%
    21:00 +10°C° 0 mm 4 mps 750 mmHg 67%
    22:00 +10°C° 0 mm 4 mps 750 mmHg 67%
    23:00 +8°C° 0 mm 4 mps 750 mmHg 68%

    28 February, Friday

    Time Temperature Precipitation Wind Pressure Humidity
    00:00 +9°C° 0 mm 3 mps 750 mmHg 68%
    01:00 +8°C° 0 mm 4 mps 749 mmHg 67%
    02:00 +10°C° 0 mm 4 mps 749 mmHg 66%
    03:00 +10°C° 0 mm 4 mps 749 mmHg 65%
    04:00 +10°C° 0 mm 4 mps 748 mmHg 64%
    05:00 +10°C° 0 mm 4 mps 748 mmHg 63%
    06:00 +9°C° 0 mm 5 mps 747 mmHg 62%
    07:00 +9°C° 0 mm 5 mps 748 mmHg 61%
    08:00 +9°C° 0 mm 5 mps 748 mmHg 61%
    09:00 +10°C° 0 mm 5 mps 748 mmHg 61%
    10:00 +10°C° 0 mm 7 mps 748 mmHg 64%
    11:00 +10°C° 0 mm 9 mps 748 mmHg 66%
    12:00 +9°C° 0 mm 11 mps 748 mmHg 69%
    13:00 +9°C° 0 mm 11 mps 749 mmHg 65%
    14:00 +8°C° 0 mm 12 mps 749 mmHg 61%
    15:00 +7°C° 0 mm 13 mps 749 mmHg 57%
    16:00 +5°C° 0 mm 12 mps 750 mmHg 62%
    17:00 +4°C° 0 mm 12 mps 751 mmHg 67%
    18:00 +2°C° 0 mm 12 mps 751 mmHg 72%
    19:00 +2°C° 0 mm 11 mps 752 mmHg 71%
    20:00 +2°C° 0 mm 9 mps 753 mmHg 70%
    21:00 +2°C° 0 mm 8 mps 754 mmHg 70%
    22:00 +2°C° 0 mm 7 mps 754 mmHg 72%
    23:00 +2°C° 0 mm 6 mps 755 mmHg 74%

    29 February, Saturday

    Time Temperature Precipitation Wind Pressure Humidity
    00:00 +1°C° 0 mm 5 mps 755 mmHg 76%
    01:00 +1°C° 0 mm 4 mps 755 mmHg 77%
    02:00 +1°C° 0 mm 3 mps 755 mmHg 79%
    03:00 +1°C° 0 mm 3 mps 755 mmHg 80%
    04:00 +1°C° 0 mm 2 mps 755 mmHg 80%
    05:00 +1°C° 0 mm 2 mps 755 mmHg 80%
    06:00 +2°C° 0 mm 1 mps 755 mmHg 81%
    07:00 +2°C° 0 mm 2 mps 755 mmHg 78%
    08:00 +3°C° 0 mm 2 mps 755 mmHg 75%
    09:00 +2°C° 0 mm 3 mps 755 mmHg 73%
    10:00 +3°C° 0 mm 3 mps 755 mmHg 68%
    11:00 +5°C° 0 mm 4 mps 754 mmHg 64%
    12:00 +6°C° 0 mm 4 mps 754 mmHg 59%
    13:00 +6°C° 0 mm 4 mps 753 mmHg 56%
    14:00 +6°C° 0 mm 4 mps 753 mmHg 53%
    15:00 +7°C° 0 mm 4 mps 752 mmHg 50%
    16:00 +6°C° 0 mm 4 mps 752 mmHg 53%
    17:00 +6°C° 0 mm 5 mps 752 mmHg 55%
    18:00 +5°C° 0 mm 5 mps 752 mmHg 58%
    19:00 +5°C° 0.1 mm 5 mps 752 mmHg 63%
    20:00 +3°C° 0.1 mm 6 mps 752 mmHg 68%
    21:00 +3°C° 0.1 mm 6 mps 753 mmHg 72%
    22:00 +3°C° 0.9 mm 6 mps 753 mmHg 76%
    23:00 +3°C° 0.9 mm 5 mps 753 mmHg 80%

    1 March, Sunday

    Time Temperature Precipitation Wind Pressure Humidity
    00:00 +3°C° 0.9 mm 5 mps 753 mmHg 84%
    01:00 +2°C° 0 mm 5 mps 753 mmHg 84%
    02:00 +2°C° 0 mm 5 mps 753 mmHg 84%
    03:00 +2°C° 0 mm 5 mps 753 mmHg 83%
    04:00 +1°C° 0 mm 5 mps 753 mmHg 82%
    05:00 +1°C° 0 mm 6 mps 754 mmHg 81%
    06:00 +1°C° 0 mm 6 mps 754 mmHg 81%
    07:00 0°C° 0 mm 7 mps 755 mmHg 77%
    08:00 0°C° 0 mm 7 mps 755 mmHg 73%
    09:00 +1°C° 0 mm 8 mps 756 mmHg 70%
    10:00 +1°C° 0 mm 9 mps 756 mmHg 63%
    11:00 +2°C° 0 mm 9 mps 756 mmHg 56%
    12:00 +3°C° 0 mm 9 mps 756 mmHg 49%
    13:00 +5°C° 0 mm 9 mps 756 mmHg 45%
    14:00 +5°C° 0 mm 9 mps 756 mmHg 42%
    15:00 +5°C° 0 mm 9 mps 756 mmHg 38%
    16:00 +4°C° 0 mm 8 mps 756 mmHg 43%
    17:00 +3°C° 0 mm 7 mps 757 mmHg 48%
    18:00 +3°C° 0 mm 6 mps 757 mmHg 53%
    19:00 +2°C° 0 mm 5 mps 757 mmHg 57%
    20:00 +2°C° 0 mm 5 mps 757 mmHg 60%
    21:00 +1°C° 0 mm 5 mps 758 mmHg 64%
    22:00 +1°C° 0 mm 4 mps 758 mmHg 68%
    23:00 0°C° 0 mm 4 mps 758 mmHg 72%
    Show more